[[[{"header":{"parameterUnit":"kt","parameterCategory":2,"dx":1,"dy":1,"la1":30.253999710083008,"la2":30.299108505249023,"lo1":-89.0895004272461,"lo2":-89.04439544677734,"nx":28,"ny":28,"refTime":"2022-09-30T21:00:00:Z","depth":0,"parameterNumber":1,"parameterNumberName":"U-component_of_WINDS"},"data":[0.1617,0.1476,0.1459,0.1291,0.1248,0.1129,0.1081,0.1017,0.0962,0.0818,0.0733,0.0702,0.0639,0.0532,0.0438,0.0425,0.0383,0.0346,0.0336,0.0522,0.0546,0.0569,0.0599,0.0339,0.0339,0.0143,0.0141,0.014,0.1754,0.171,0.1618,0.1515,0.1435,0.1462,0.1383,0.1312,0.1205,0.1138,0.1052,0.0924,0.0821,0.077,0.0667,0.0599,0.0602,0.0571,0.0571,0.0559,0.076,0.0792,0.057,0.057,0.057,0.057,0.057,0.057,0.1999,0.1916,0.1844,0.1743,0.1688,0.1619,0.1536,0.15,0.1408,0.1299,0.1298,0.1176,0.1103,0.0971,0.0922,0.0825,0.0856,0.0815,0.0803,0.079,0.0777,0.1052,0.0809,0.0809,0.081,0.081,0.0811,0,0.217,0.2162,0.2072,0.1976,0.1901,0.1825,0.1753,0.1702,0.1677,0.1602,0.1492,0.1425,0.1293,0.1185,0.1085,0.1042,0.1055,0.1058,0.1028,0.102,0.1028,0.1015,0.1335,0.1062,0.1064,0.1066,0.1067,0.1068,0.2409,0.2316,0.2233,0.2172,0.2128,0.203,0.1967,0.1953,0.1887,0.1795,0.1722,0.1616,0.1529,0.1354,0.1309,0.121,0.1214,0.1111,0.1198,0.1198,0.1202,0.1204,0.1192,0.109,0.1087,0.1085,0.1083,0,0.2543,0.2516,0.2366,0.2293,0.2272,0.2175,0.2111,0.2028,0.2002,0.1883,0.1854,0.181,0.1701,0.1673,0.1544,0.1532,0.1365,0.1377,0.139,0.1387,0.1287,0.1293,0.0978,0.0933,0.1211,0.1209,0.1207,0,0.2731,0.261,0.2576,0.249,0.2355,0.2343,0.2209,0.2172,0.2109,0.2015,0.203,0.1941,0.192,0.1827,0.1809,0.167,0.1648,0.1627,0.1622,0.162,0.1622,0.1577,0.1586,0.1624,0.1626,0.1627,0.1629,0,0.2937,0.278,0.2642,0.2601,0.2509,0.2445,0.2404,0.2334,0.2272,0.2189,0.2147,0.2052,0.1997,0.1922,0.1898,0.1958,0.1731,0.1808,0.1708,0.1708,0.1651,0.1654,0.139,0.1631,0.1631,0.1632,0.1632,0,0.3082,0.2999,0.2806,0.2729,0.2687,0.2598,0.2501,0.2418,0.2343,0.2326,0.226,0.2263,0.2144,0.2221,0.2055,0.2138,0.2083,0.2055,0.2047,0.2026,0.2111,0.1956,0.1716,0.1685,0.2019,0.2022,0.2025,0,0.3322,0.312,0.3107,0.2924,0.2825,0.2845,0.2746,0.2679,0.2648,0.2559,0.2525,0.2423,0.2476,0.2439,0.2362,0.232,0.2212,0.2335,0.2199,0.2194,0.221,0.199,0.1957,0.1773,0.2066,0.2062,0.2059,0,0.3503,0.3394,0.3362,0.3312,0.3223,0.3141,0.3028,0.2925,0.2866,0.2792,0.2692,0.2553,0.2584,0.2524,0.2516,0.2437,0.2285,0.248,0.2478,0.244,0.2087,0.2055,0.2024,0.2297,0.2292,0.2288,0.2091,0,0.3714,0.3611,0.3527,0.342,0.3353,0.3239,0.3207,0.3141,0.314,0.3109,0.2966,0.2902,0.2795,0.2756,0.2754,0.2583,0.2605,0.264,0.2705,0.2565,0.2498,0.2472,0.2807,0.2809,0.2811,0.2812,0,0,0.3946,0.3797,0.3785,0.3674,0.3616,0.3637,0.3515,0.3462,0.3352,0.331,0.3349,0.314,0.3086,0.2914,0.2869,0.2828,0.2792,0.2842,0.2634,0.2614,0.2596,0.2526,0.2499,0.2815,0.2815,0.2816,0.2816,0,0.4014,0.3964,0.3847,0.3791,0.3707,0.368,0.3652,0.3572,0.3545,0.3407,0.3421,0.3332,0.3167,0.3105,0.3052,0.2865,0.2877,0.2836,0.2743,0.2651,0.2629,0.261,0.2537,0.2511,0.282,0.282,0.282,0,0.4181,0.4124,0.4065,0.3937,0.3882,0.3781,0.3845,0.3738,0.3662,0.3686,0.3546,0.3506,0.3422,0.3267,0.3196,0.3228,0.2956,0.3038,0.3028,0.3016,0.2925,0.2899,0.2876,0.3179,0.318,0.3181,0,0,0.4244,0.4149,0.408,0.3949,0.3914,0.3871,0.3815,0.3806,0.3732,0.3702,0.3649,0.3576,0.3479,0.3415,0.3322,0.3158,0.3135,0.3084,0.3067,0.3053,0.3034,0.294,0.2914,0.3186,0.3187,0.3187,0,0,0.4273,0.4188,0.42,0.4044,0.3975,0.3896,0.3815,0.3827,0.3741,0.3749,0.3728,0.3708,0.3562,0.3521,0.3595,0.3344,0.3411,0.3393,0.3374,0.3352,0.3336,0.3345,0.3647,0,0,0,0,0,0.4325,0.4199,0.4211,0.418,0.4018,0.389,0.3869,0.3849,0.3897,0.3834,0.3792,0.3811,0.3556,0.3621,0.359,0.3505,0.3254,0.3242,0.323,0.3168,0.3145,0.3126,0,0,0,0,0,0,0.4313,0.4275,0.4214,0.4131,0.4094,0.3895,0.3971,0.3962,0.3903,0.3909,0.3819,0.3808,0.3788,0.3636,0.3608,0.3528,0.3656,0.3249,0.3239,0.323,0.316,0.3141,0.3126,0,0,0,0,0,0.4303,0.4273,0.4017,0.4133,0.4101,0.4045,0.3975,0.3968,0.3923,0.3856,0.3846,0.3913,0.3786,0.3761,0.3619,0.3541,0.3675,0.3665,0.3242,0.3234,0.3227,0.3151,0,0,0,0,0,0,0.4296,0.4265,0.401,0.4,0.4178,0.4056,0.4036,0.3974,0.3873,0.3862,0.395,0.3956,0.3784,0.3765,0.3745,0.3547,0.3691,0.3681,0.3674,0.3236,0.323,0.3225,0,0,0,0,0,0,0.4281,0.4256,0.4005,0.4064,0.406,0.4066,0.4048,0.3925,0.3871,0.3972,0.3974,0.3954,0.3812,0.3766,0.3752,0.356,0.3703,0.3693,0.3686,0.3682,0.3231,0.3226,0,0,0,0,0,0,0.427,0.4248,0.4067,0.4063,0.406,0.394,0.3956,0.379,0.3924,0.3976,0.3936,0.3941,0.3813,0.3798,0.3756,0.357,0.3563,0.3703,0.3696,0.3691,0.3688,0,0,0,0,0,0,0,0.4261,0.4411,0.4073,0.4063,0.406,0.3902,0.39,0.3897,0.3925,0.393,0.3934,0.3939,0.3761,0.375,0.3739,0.3579,0,0,0.3704,0.3699,0,0,0,0,0,0,0,0,0.442,0.4413,0.4073,0.4071,0.4068,0.3902,0.39,0.3897,0.3926,0.393,0.3933,0.3937,0.3758,0.3749,0.374,0,0,0,0,0,0,0,0,0,0,0,0,0,0,0,0.4073,0.4071,0,0.3902,0.39,0.3898,0.3927,0.393,0.3933,0.3936,0.3756,0.3748,0.3741,0,0,0,0,0,0,0,0,0,0,0,0,0,0,0,0,0,0,0,0,0,0,0,0,0,0,0,0,0,0,0,0,0,0,0,0,0,0,0,0,0,0,0,0,0,0,0,0,0,0,0,0,0,0,0,0,0,0,0,0,0,0,0,0,0,0,0,0,0]}],[{"header":{"parameterUnit":"kt","parameterCategory":2,"dx":1,"dy":1,"la1":30.253999710083008,"la2":30.299108505249023,"lo1":-89.0895004272461,"lo2":-89.04439544677734,"nx":28,"ny":28,"refTime":"2022-09-30T21:00:00:Z","depth":0,"parameterNumber":2,"parameterNumberName":"V-component_of_WINDS"},"data":[-9.8609,-9.8902,-9.8934,-9.9283,-9.937,-9.9613,-9.9709,-9.9837,-9.9945,-10.0236,-10.0408,-10.0467,-10.0585,-10.0796,-10.0981,-10.1002,-10.108,-10.1161,-10.1172,-10.0781,-10.0729,-10.0679,-10.0613,-10.1177,-10.1178,-10.1574,-10.1578,-10.158,-9.8321,-9.8411,-9.8605,-9.8814,-9.8979,-9.8921,-9.908,-9.9222,-9.944,-9.9575,-9.9746,-10.0003,-10.0208,-10.03,-10.0502,-10.0637,-10.0619,-10.0689,-10.068,-10.07,-10.0282,-10.0212,-10.07,-10.07,-10.07,-10.07,-10.07,-10.07,-9.7805,-9.798,-9.8125,-9.8335,-9.8448,-9.8587,-9.8758,-9.8827,-9.9015,-9.9232,-9.923,-9.9475,-9.9614,-9.987,-9.9963,-10.0153,-10.008,-10.0165,-10.0187,-10.0208,-10.023,-9.9657,-10.0188,-10.0186,-10.0185,-10.0184,-10.0183,0,-9.7438,-9.7453,-9.764,-9.7838,-9.7992,-9.8147,-9.8293,-9.84,-9.8437,-9.859,-9.8813,-9.8947,-9.9208,-9.942,-9.9614,-9.9693,-9.9644,-9.9642,-9.9701,-9.9707,-9.9688,-9.9703,-9.9023,-9.9626,-9.9621,-9.9618,-9.9615,-9.9613,-9.6921,-9.712,-9.7286,-9.7413,-9.7501,-9.7705,-9.7833,-9.7851,-9.7985,-9.8166,-9.8317,-9.853,-9.8701,-9.9051,-9.9125,-9.932,-9.9298,-9.9525,-9.9326,-9.9324,-9.9303,-9.9292,-9.9313,-9.9564,-9.957,-9.9575,-9.9579,0,-9.6628,-9.6677,-9.6995,-9.7138,-9.718,-9.7387,-9.7508,-9.7681,-9.7727,-9.7972,-9.8029,-9.8102,-9.832,-9.8358,-9.8612,-9.8625,-9.8964,-9.8936,-9.8917,-9.8914,-9.9122,-9.9103,-9.9791,-9.9882,-9.9295,-9.9301,-9.9305,0,-9.6207,-9.6467,-9.6525,-9.6707,-9.6995,-9.7006,-9.7291,-9.736,-9.748,-9.7672,-9.7623,-9.7804,-9.7824,-9.801,-9.803,-9.8313,-9.836,-9.8387,-9.8389,-9.8393,-9.839,-9.8463,-9.8436,-9.8384,-9.838,-9.8377,-9.8374,0,-9.5743,-9.6078,-9.6373,-9.6456,-9.6634,-9.6771,-9.6851,-9.6985,-9.7109,-9.7275,-9.7355,-9.7547,-9.7652,-9.7801,-9.7824,-9.7688,-9.817,-9.7988,-9.8198,-9.8198,-9.8303,-9.8297,-9.8896,-9.837,-9.8369,-9.8368,-9.8367,0,-9.5411,-9.5582,-9.6001,-9.6148,-9.6234,-9.6428,-9.6619,-9.6793,-9.6937,-9.6963,-9.7093,-9.7064,-9.7314,-9.713,-9.7474,-9.7291,-9.7397,-9.7445,-9.7461,-9.7486,-9.728,-9.7615,-9.818,-9.8241,-9.7509,-9.7502,-9.7495,0,-9.4867,-9.5303,-9.5316,-9.5714,-9.5921,-9.5853,-9.6067,-9.6196,-9.6248,-9.6429,-9.6484,-9.6689,-9.6561,-9.663,-9.6795,-9.686,-9.7098,-9.6828,-9.7087,-9.7097,-9.7054,-9.7574,-9.765,-9.8052,-9.7404,-9.7414,-9.742,0,-9.4452,-9.4666,-9.4736,-9.4832,-9.5006,-9.5177,-9.5423,-9.563,-9.575,-9.5899,-9.6106,-9.6394,-9.6309,-9.6423,-9.6419,-9.6589,-9.6937,-9.6474,-9.6478,-9.6558,-9.736,-9.7431,-9.7499,-9.6896,-9.6907,-9.6916,-9.7348,0,-9.3942,-9.4165,-9.4356,-9.4568,-9.4706,-9.4956,-9.4998,-9.5137,-9.5121,-9.5169,-9.5471,-9.5585,-9.5793,-9.5878,-9.5862,-9.624,-9.6182,-9.6089,-9.5913,-9.6254,-9.6397,-9.6455,-9.5696,-9.5691,-9.5687,-9.5684,0,0,-9.341,-9.3731,-9.3736,-9.3976,-9.4093,-9.4018,-9.4282,-9.4386,-9.46,-9.4682,-9.4584,-9.5007,-9.5104,-9.5466,-9.5575,-9.5659,-9.573,-9.5609,-9.6091,-9.6136,-9.6178,-9.6331,-9.6391,-9.5676,-9.5675,-9.5673,-9.5672,0,-9.3232,-9.3336,-9.3597,-9.3706,-9.3868,-9.3906,-9.3969,-9.4115,-9.4158,-9.4454,-9.4386,-9.4572,-9.4908,-9.502,-9.5121,-9.5566,-9.5504,-9.5626,-9.5854,-9.6047,-9.6098,-9.6143,-9.6303,-9.6361,-9.5662,-9.5663,-9.5663,0,-9.2832,-9.2941,-9.3071,-9.3334,-9.3438,-9.3651,-9.3478,-9.3709,-9.3867,-9.377,-9.4065,-9.4133,-9.4285,-9.4622,-9.4774,-9.4689,-9.5297,-9.5111,-9.5138,-9.5156,-9.5345,-9.5406,-9.5461,-9.4746,-9.4742,-9.4739,0,0,-9.2672,-9.2879,-9.3,-9.3298,-9.3369,-9.3429,-9.3546,-9.3541,-9.368,-9.3736,-9.3823,-9.3959,-9.4154,-9.4283,-9.4468,-9.4832,-9.4864,-9.4996,-9.504,-9.5075,-9.5112,-9.531,-9.5371,-9.4726,-9.4726,-9.4726,0,0,-9.2595,-9.2748,-9.2706,-9.3058,-9.3194,-9.3331,-9.3511,-9.3463,-9.3635,-9.361,-9.361,-9.3647,-9.3962,-9.4031,-9.3858,-9.4406,-9.4232,-9.4274,-9.435,-9.4405,-9.4448,-9.4425,-9.3694,0,0,0,0,0,-9.2435,-9.2729,-9.269,-9.2755,-9.3085,-9.3353,-9.3395,-9.3403,-9.328,-9.3423,-9.3487,-9.3413,-9.3938,-9.3784,-9.3848,-9.4041,-9.4564,-9.4593,-9.462,-9.4804,-9.4861,-9.4909,0,0,0,0,0,0,-9.246,-9.254,-9.2682,-9.2831,-9.2905,-9.3342,-9.3136,-9.3146,-9.3265,-9.3247,-9.3403,-9.3417,-9.3428,-9.3752,-9.3809,-9.3993,-9.3675,-9.4575,-9.46,-9.4622,-9.4823,-9.487,-9.491,0,0,0,0,0,-9.2481,-9.2545,-9.3073,-9.2827,-9.2892,-9.2974,-9.3125,-9.3132,-9.3224,-9.3324,-9.3336,-9.322,-9.3433,-9.3481,-9.3786,-9.3967,-9.3636,-9.3657,-9.4591,-9.461,-9.4628,-9.4846,0,0,0,0,0,0,-9.2496,-9.2552,-9.3086,-9.3105,-9.2717,-9.2949,-9.2986,-9.3119,-9.3293,-9.3308,-9.3139,-9.3123,-9.344,-9.3476,-9.3514,-9.3958,-9.3603,-9.3625,-9.3638,-9.4606,-9.4621,-9.4634,0,0,0,0,0,0,-9.2518,-9.257,-9.3096,-9.2956,-9.296,-9.2927,-9.296,-9.3218,-9.3296,-9.3098,-9.309,-9.313,-9.3383,-9.3475,-9.3503,-9.3907,-9.3579,-9.3599,-9.3614,-9.3623,-9.4618,-9.463,0,0,0,0,0,0,-9.254,-9.2585,-9.2951,-9.2954,-9.2957,-9.318,-9.3155,-9.3492,-9.3178,-9.3091,-9.315,-9.3137,-9.3383,-9.3412,-9.3497,-9.3889,-9.3902,-9.3579,-9.3593,-9.3603,-9.361,0,0,0,0,0,0,0,-9.2558,-9.2258,-9.2968,-9.2952,-9.2954,-9.3289,-9.3295,-9.33,-9.3175,-9.3164,-9.3153,-9.3143,-9.3461,-9.3483,-9.3506,-9.3874,0,0,-9.3577,-9.3587,0,0,0,0,0,0,0,0,-9.2239,-9.2253,-9.2969,-9.2973,-9.2977,-9.329,-9.3295,-9.3299,-9.3174,-9.3164,-9.3155,-9.3147,-9.3467,-9.3485,-9.3504,0,0,0,0,0,0,0,0,0,0,0,0,0,0,0,-9.2969,-9.2973,0,-9.3291,-9.3294,-9.3298,-9.3172,-9.3165,-9.3157,-9.315,-9.3472,-9.3487,-9.3502,0,0,0,0,0,0,0,0,0,0,0,0,0,0,0,0,0,0,0,0,0,0,0,0,0,0,0,0,0,0,0,0,0,0,0,0,0,0,0,0,0,0,0,0,0,0,0,0,0,0,0,0,0,0,0,0,0,0,0,0,0,0,0,0,0,0,0,0,0]}]]]